Regional Weather Roundup
Issued by NWS

Home | Current Version | Previous Version | Graphics & Text | Print | Product List | Glossary Off
Versions: 1 2 3 4 5 6 7 8 9 10 11 12 13 14 15 16 17 18 19 20 21 22 23 24 25 26 27 28 29 30 31 32 33 34 35 36 37 38 39 40 41 42 43 44 45 46 47 48 49 50

000
ASUS43 KDTX 300610
RWRMI
MICHIGAN HOURLY REGIONAL WEATHER ROUNDUP
NATIONAL WEATHER SERVICE DETROIT/PONTIAC MI
100 AM EST FRI JAN 30 2015

NOTE: "FAIR" INDICATES FEW OR NO CLOUDS BELOW 12,000 FEET WITH NO
SIGNIFICANT WEATHER AND/OR OBSTRUCTION TO VISIBILITY.

MIZ047>049-052>055-059>063-066>070-074>076-081>083-300700-
SOUTHEAST LOWER MICHIGAN

CITY           SKY/WX    TMP DP  RH WIND       PRES   REMARKS
ADRIAN         CLOUDY    28  18  66 N17G32    30.13R WCI  16
6HR MIN TEMP:  28; 6HR MAX TEMP:  33; 6HR PCP: TRACE;

ALMA           CLOUDY    23  15  71 NW15G22   30.17R WCI  10
ANN ARBOR      CLOUDY    26  16  65 NW15G32   30.12R WCI  14
BAD AXE        LGT SNOW  20  18  89 NW15G21   30.08R VSB 1   WCI   7
CARO           CLOUDY    21  14  72 NW13G22   30.11R WCI   9
DETROIT CITY   CLOUDY    29  18  63 NW14G23   30.08R WCI  18
6HR MIN TEMP:  29; 6HR MAX TEMP:  34;

DETROIT        FLURRIES  27  16  63 W17G28    30.10R WCI  14
6HR MIN TEMP:  27; 6HR MAX TEMP:  33; 6HR PCP: TRACE;

FLINT          FLURRIES  25  14  63 NW21G30   30.12R WCI  11
6HR MIN TEMP:  25; 6HR MAX TEMP:  33; 6HR PCP: TRACE;

GROSSE ILE     CLOUDY    28  18  64 NW20G25   30.08R WCI  15
HILLSDALE      LGT SNOW  26  20  78 NW17G29   30.12R WCI  14
6HR MIN TEMP:  26; 6HR MAX TEMP:  32;

HOWELL         CLOUDY    23  13  68 NW20G28   30.12R WCI   8
6HR MIN TEMP:  23; 6HR MAX TEMP:  31;


CITY           SKY/WX    TMP DP  RH WIND       PRES   REMARKS
JACKSON        MOCLDY    24  15  68 N18G35    30.15R WCI  10
6HR MIN TEMP:  24; 6HR MAX TEMP:  31; 6HR PCP: TRACE;

LAMBERTVILLE   CLOUDY    32  21  64 N14       30.11R WCI  22
LANSING        CLOUDY    22  13  68 NW16G24   30.18R WCI   8
6HR MIN TEMP:  22; 6HR MAX TEMP:  31; 6HR PCP: TRACE;

LAPEER         LGT SNOW  22  16  75 NW14G24   30.09R WCI  10
MASON          CLOUDY    22  13  67 NW14G28   30.15R WCI   9
MONROE         CLOUDY    28  19  69 NW15      30.09R WCI  17
MT. CLEMENS    FLURRIES  27  21  79 W21       30.05R WCI  13
6HR MIN TEMP:  27; 6HR MAX TEMP:  32; 6HR PCP: TRACE;

PONTIAC        LGT SNOW  22  16  78 NW21G30   30.08R WCI   6
6HR MIN TEMP:  23; 6HR MAX TEMP:  30; 6HR PCP: TRACE;

PORT HOPE        N/A     22  16  78 NW20G31   30.06R WCI   7
6HR MIN TEMP:  22; 6HR MAX TEMP:  31;

PORT HURON     FLURRIES  25  18  74 NW17G28   30.06R WCI  11
TRI CITIES     CLOUDY    22  11  62 NW28G37   30.14R WCI   4
6HR MIN TEMP:  22; 6HR MAX TEMP:  33; 6HR PCP: TRACE;

TROY           FLURRIES  27  18  69 W22G29    30.11R WCI  12
SAGINAW HB     CLOUDY    23  14  68 NW20G26   30.12R WCI   8
$$
MIZ043>046-050>051-056>058-064>065-071>073-077>080-300700-
SOUTHWEST LOWER MICHIGAN

CITY           SKY/WX    TMP DP  RH WIND       PRES   REMARKS
BATTLE CREEK   PTCLDY    23  12  62 N20G29    30.20R WCI   8
6HR MIN TEMP:  23; 6HR MAX TEMP:  33; 6HR PCP: TRACE;

BENTON HARBOR  FLURRIES  27  19  72 N14G29    30.26R WCI  16
6HR MIN TEMP:  27; 6HR MAX TEMP:  34; 6HR PCP:  0.01;

BIG RAPIDS     FLURRIES  22  15  75 NW16      30.19R WCI   8
6HR MIN TEMP:  21; 6HR MAX TEMP:  29;

COLDWATER      FLURRIES  27  20  75 NW13G23   30.17R WCI  16
6HR MIN TEMP:  27; 6HR MAX TEMP:  32;

FREMONT        FLURRIES  22  14  71 NW18G28   30.24R WCI   7
HOLLAND        FLURRIES  25  15  66 NW10G20   30.27R WCI  15
6HR MIN TEMP:  25; 6HR MAX TEMP:  35; 6HR PCP: TRACE;

GRAND RAPIDS   CLOUDY    23  14  68 NW15      30.22R WCI  10
6HR MIN TEMP:  23; 6HR MAX TEMP:  32; 6HR PCP: TRACE;

IONIA          CLOUDY    24  14  66 NW15G24   30.19R WCI  11
KALAMAZOO      CLOUDY    25  15  66 N15       30.21R WCI  13
6HR MIN TEMP:  25; 6HR MAX TEMP:  33; 6HR PCP: TRACE;

LUDINGTON      CLOUDY    23  13  65 N24G31    30.29R WCI   7
6HR MIN TEMP:  23; 6HR MAX TEMP:  31;

MARSHALL       CLOUDY    25  17  72 NW10G20   30.16R WCI  15
MOUNT PLEASANT CLOUDY    22  12  64 NW17G23   30.16R WCI   8
6HR MIN TEMP:  22; 6HR MAX TEMP:  31;

MUSKEGON       FLURRIES  24  15  68 N16G31    30.29R WCI  11
6HR MIN TEMP:  23; 6HR MAX TEMP:  34; 6HR PCP: TRACE;

SOUTH HAVEN    CLOUDY    28  17  66 N14G23    30.26R WCI  16
$$
MIZ016>042-300700-
NORTHERN LOWER MICHIGAN

CITY           SKY/WX    TMP DP  RH WIND       PRES   REMARKS
ALPENA         LGT SNOW  13   8  81 NW21G26   30.15R WCI  -5
6HR MIN TEMP:  13; 6HR MAX TEMP:  28; 6HR PCP: TRACE;

BEAVER ISLAND  CLOUDY    14   6  71 N10G22    30.28R WCI   1
6HR MIN TEMP:  14; 6HR MAX TEMP:  21;

BELLAIRE       LGT SNOW  17  11  80 N7        30.27R WCI   7
6HR MIN TEMP:  17; 6HR MAX TEMP:  25;

CADILLAC       LGT SNOW  18  10  73 NW14G28   30.16R WCI   4
CHARLEVOIX     CLOUDY    15   8  73 NW18G29   30.29R WCI  -2
6HR MIN TEMP:  15; 6HR MAX TEMP:  24;

FRANKFORT      CLOUDY    21  13  71 NW16G28   30.28R WCI   7
GAYLORD        CLOUDY    11   5  77 NW12G24   30.16R WCI  -3
6HR MIN TEMP:  11; 6HR MAX TEMP:  22; 6HR PCP:  0.01;

GRAYLING       LGT SNOW  15   8  76 NW23G31   30.17R WCI  -4
6HR MIN TEMP:  15; 6HR MAX TEMP:  24;

HARBOR SPRINGS CLOUDY    13   6  72 N9G20     30.24R WCI   1
HOUGHTON LAKE  LGT SNOW  16   9  74 N17G26    30.15R WCI   0
6HR MIN TEMP:  16; 6HR MAX TEMP:  25; 6HR PCP: TRACE;

MANISTEE       CLOUDY    21  10  63 N15G25    30.28R WCI   8
OSCODA         LGT SNOW  16  10  75 N21G30    30.09R WCI  -1
PELLSTON       MIX PCPN  12   5  73 N18G31    30.25R WCI  -6
6HR MIN TEMP:  12; 6HR MAX TEMP:  22; 6HR PCP: TRACE;

ROGERS CITY    CLOUDY    13   8  81 NW18G25   30.19R WCI  -4
TRAVERSE CITY  CLOUDY    20   9  62 N17G29    30.25R WCI   5
6HR MIN TEMP:  20; 6HR MAX TEMP:  25; 6HR PCP: TRACE;

$$
MIZ007>008-015-300700-
EASTERN UPPER MICHIGAN

CITY           SKY/WX    TMP DP  RH WIND       PRES   REMARKS
KINROSS        CLEAR      3   0  85 N15G25    30.22R WCI -15
6HR MIN TEMP:   3; 6HR MAX TEMP:  19;

MACKINAC ISLAN CLOUDY    11   4  74 N23G32    30.22R WCI  -9
6HR MIN TEMP:  11; 6HR MAX TEMP:  23;

NEWBERRY       LGT SNOW  10   8  92 N10       30.26R VSB 3/4 WCI  -4
S. S. MARIE    CLEAR      3  -5  69 NW14G22   30.24R WCI -15
6HR MIN TEMP:   3; 6HR MAX TEMP:  19; 6HR PCP: TRACE;

MUNISING         N/A     17  11  77 N24G30    30.32R WCI  -1
6HR MIN TEMP:  16; 6HR MAX TEMP:  22; 6HR PCP:  0.03;

$$
MIZ004>006-011>014-085-300700-
CENTRAL UPPER MICHIGAN

CITY           SKY/WX    TMP DP  RH WIND       PRES   REMARKS
MANISTIQUE     LGT SNOW  15  12  90 N9        30.29R WCI   3
6HR MIN TEMP:  15; 6HR MAX TEMP:  20;

ESCANABA       CLOUDY    16   7  67 NW10G21   30.35R WCI   3
6HR MIN TEMP:  16; 6HR MAX TEMP:  19;

MENOMINEE      CLOUDY    18   7  62 N13       30.36R WCI   4
6HR MIN TEMP:  18; 6HR MAX TEMP:  25;

SAWYER-GWINN   LGT SNOW  12   8  82 N14       30.31R WCI  -3
6HR MIN TEMP:  12; 6HR MAX TEMP:  16;

$$
MIZ001>003-009>011-084-300700-
WESTERN UPPER MICHIGAN

CITY           SKY/WX    TMP DP  RH WIND       PRES   REMARKS
IRON MOUNTAIN  CLOUDY    14   3  61 NW12      30.33R WCI   0
6HR MIN TEMP:  13; 6HR MAX TEMP:  19; 6HR PCP: TRACE;

HOUGHTON       LGT SNOW  10   3  73 N15       30.38R WCI  -7
6HR MIN TEMP:  10; 6HR MAX TEMP:  16; 6HR PCP: TRACE;

COPPER HARBOR    N/A     14   8  77 NE23G31   30.40R WCI  -5
6HR MIN TEMP:  14; 6HR MAX TEMP:  19;

IRONWOOD       CLOUDY    14   7  73 N10       30.39R WCI   1
6HR MIN TEMP:  14; 6HR MAX TEMP:  18;

$$

ABBREVIATIONS USED IN REMARKS
   TC - TEMPERATURE IN CELSIUS
  WCI - WIND CHILL INDEX
   HX - HEAT INDEX
  VSB - VISIBILITY




USA.gov is the U.S. government's official web portal to all federal, state and local government web resources and services.